EDT,Max TemperatureF,Mean TemperatureF,Min TemperatureF,Max Dew PointF,MeanDew PointF,Min DewpointF,Max Humidity, Mean Humidity, Min Humidity, Max Sea Level PressureIn, Mean Sea Level PressureIn, Min Sea Level PressureIn, Max VisibilityMiles, Mean VisibilityMiles, Min VisibilityMiles, Max Wind SpeedMPH, Mean Wind SpeedMPH, Max Gust SpeedMPH,PrecipitationIn, CloudCover, Events, WindDirDegrees
2013-3-1,44,38,33,30,28,25,87,65,46,29.78,29.71,29.62,10,10,10,17,10,23,0.00,5,,308
2013-3-2,42,36,30,25,22,21,75,58,45,29.79,29.75,29.70,10,10,10,18,11,22,0.00,7,,304
2013-3-3,37,32,28,21,18,18,69,56,45,29.77,29.73,29.68,10,10,10,18,12,26,0.00,5,,300
2013-3-4,42,34,26,19,18,14,69,52,39,29.92,29.82,29.77,10,10,10,25,16,32,0.00,0,,300
2013-3-5,46,38,30,30,24,19,87,60,43,30.02,29.98,29.92,10,10,10,15,9,21,0.00,0,,346
2013-3-6,39,37,33,37,34,30,93,83,75,29.96,29.83,29.75,10,9,3,32,18,50,0.04,7,,56
2013-3-7,39,36,33,36,32,30,100,88,70,30.07,29.99,29.87,10,8,2,23,17,33,0.07,8,,348
2013-3-8,39,34,30,34,31,28,100,88,65,30.17,30.05,29.99,10,6,1,20,14,26,0.05,8,,332
2013-3-9,55,44,33,36,24,18,93,53,23,30.31,30.24,30.16,10,10,10,17,12,21,0.00,0,,348
2013-3-10,42,36,30,36,34,28,100,88,70,30.39,30.34,30.31,10,10,5,12,5,,0.00,2,,100
2013-3-11,53,43,33,48,42,32,100,91,72,30.32,30.21,30.09,10,8,0,15,5,22,0.00,5,,151
2013-3-12,55,50,44,55,48,39,100,90,76,30.09,29.87,29.68,10,8,5,21,12,31,0.50,7,,190
2013-3-13,50,44,37,37,30,21,87,62,32,29.91,29.87,29.81,10,10,10,18,10,32,0.00,2,,289
2013-3-14,41,36,30,25,14,9,65,42,29,29.97,29.92,29.87,10,10,10,28,15,39,0.00,4,,289
2013-3-15,48,38,28,27,17,9,55,43,34,30.00,29.88,29.73,10,10,10,20,12,29,0.00,4,,263
2013-3-16,42,37,32,32,28,21,100,75,49,29.91,29.83,29.77,10,8,0,12,5,,0.16,7,,19
2013-3-17,37,32,26,34,22,16,100,66,41,30.30,30.11,29.92,10,9,2,18,8,23,0.00,1,,323
2013-3-18,39,34,30,37,25,12,100,71,47,30.38,30.25,29.96,10,8,2,23,10,30,0.25,5,,67
2013-3-19,48,42,37,39,35,16,100,82,36,29.93,29.77,29.70,10,7,2,24,14,34,0.27,6,,346
2013-3-20,46,39,32,25,18,16,60,43,29,29.91,29.86,29.80,10,10,10,24,13,32,0.00,3,,277
2013-3-21,39,34,28,28,22,12,100,66,38,29.82,29.73,29.65,10,9,1,17,8,23,0.00,5,,336
2013-3-22,42,34,26,19,18,12,69,51,36,29.90,29.81,29.76,10,10,10,21,11,30,0.00,3,,283
2013-3-23,46,38,30,21,19,18,64,48,32,29.94,29.89,29.83,10,10,10,25,11,36,0.00,1,,289
2013-3-24,44,36,28,27,21,18,69,51,36,29.96,29.84,29.71,10,10,10,17,9,23,0.00,0,,332
2013-3-25,39,36,33,36,32,28,100,89,65,29.70,29.55,29.44,10,6,1,23,9,34,0.47,8,,37
2013-3-26,48,40,33,36,31,27,100,69,43,29.87,29.74,29.59,10,10,7,15,7,24,0.03,6,,287
2013-3-27,51,42,33,30,27,21,75,55,32,30.00,29.92,29.87,10,10,10,20,10,28,0.00,2,,296
2013-3-28,48,40,33,34,29,27,81,59,43,30.12,30.02,29.98,10,10,10,16,11,24,0.00,4,,306
2013-3-29,55,44,33,28,27,25,81,52,31,30.16,30.12,30.07,10,10,10,17,9,24,0.00,2,,303
2013-3-30,57,46,35,34,27,19,81,50,25,30.19,30.14,30.08,10,10,5,16,7,23,0.00,2,,271
2013-3-31,53,44,35,48,36,27,100,71,44,30.15,29.98,29.70,10,8,2,17,8,25,0.24,3,,185